ZHONGXING-2A

Last updated on Thu Jul 03 2025 00:02:46 GMT+0000 (Coordinated Universal Time)

1 38352U 12028A 25183.61956737 -.00000285 00000+0 00000+0 0 9991 2 38352 0.5493 89.4837 0001999 69.1342 83.5511 1.00269709 47790
UTC large
Height (km)
Speed (km/s)
/
Latitude / Longitude
Inclination (degrees)
Orbital Period (minutes)
Azimuth
Elevation
Range (km)
Doppler Factor

Next 0 passes for location: London (51.5072 / 0.1276)

Sorry there are no passes over London.